Wind_Speed
10 8 9 9 10 12 12 15 14 10 10 10 11 11 13 12 9 13 13 9 10 12 13 16 15 14 17 16 12 12 12 13 14 14 12 12 12 12 13 13 13 13 12 13 16 17 17 16 16 15 16 17 17 16 18 17 16 14 13 14 14 13 12 11 10 9 8 8 8 7 7 6 6 5 5 5 4 3 3 3 2 2 3 4 5 6
9 9 10 11 13 12 13 16 13 7 8 8 9 8 11 12 9 14 14 10 10 9 9 15 16 15 15 15 13 12 13 13 13 14 13 13 13 12 14 15 14 11 10 13 15 17 17 17 17 17 16 18 18 17 17 18 16 14 13 14 15 14 14 12 11 10 9 8 8 7 7 6 6 6 5 6 5 4 3 3 3 3 2 3 4 4
9 9 11 13 13 9 8 11 10 7 8 9 8 7 8 9 9 12 11 9 8 7 8 12 14 14 14 13 13 13 13 12 13 15 14 14 13 13 13 13 13 11 12 14 14 16 17 17 19 20 17 18 18 16 16 17 17 17 15 15 16 15 15 13 11 11 9 8 7 7 7 6 6 7 7 7 6 4 4 4 3 3 2 3 3 4
8 10 15 13 8 6 5 6 8 8 8 9 8 8 8 8 10 9 9 9 8 7 9 12 10 11 11 11 14 14 12 11 13 16 15 14 15 14 13 11 10 12 15 16 15 14 16 18 21 20 15 11 9 9 11 13 13 12 11 11 14 14 13 12 10 10 10 9 9 9 8 7 8 8 7 7 6 5 5 4 4 3 3 2 3 4
10 9 12 10 8 9 10 8 10 9 8 10 12 11 9 10 13 8 6 10 10 8 9 10 7 7 10 13 14 11 11 12 13 15 15 15 16 12 12 12 11 14 15 13 14 14 14 17 17 14 14 10 6 7 7 8 9 7 7 6 5 6 7 10 11 10 11 11 10 10 9 7 8 7 5 5 6 5 4 4 4 4 3 3 3 3
10 4 7 8 8 11 12 10 12 10 8 10 13 14 14 12 12 8 6 7 7 8 11 11 8 7 11 15 14 11 12 14 13 13 14 13 13 12 10 11 13 14 11 10 13 14 15 13 12 17 20 16 10 7 8 10 10 8 8 7 5 4 2 6 11 11 10 9 9 8 7 5 5 5 4 5 5 4 5 5 5 4 4 4 4 3
6 7 7 9 9 12 12 10 12 12 9 8 11 16 18 13 10 11 10 8 7 5 9 13 10 7 9 12 13 12 13 15 13 14 16 13 11 10 8 8 10 10 10 11 13 13 13 11 18 19 21 21 17 13 12 15 14 12 11 9 10 10 5 2 8 11 9 7 7 6 5 4 3 4 5 5 4 4 5 5 4 4 3 3 3 3
6 7 8 10 10 11 11 8 11 13 10 8 9 16 18 14 11 11 9 8 7 2 5 12 11 8 6 7 11 13 13 15 15 15 17 15 12 11 9 9 10 11 12 10 10 10 8 14 19 18 19 23 22 21 21 20 19 18 15 13 13 13 10 5 5 10 9 6 7 6 4 3 3 4 4 5 4 4 5 4 3 3 3 3 3 3
9 10 9 11 10 9 9 10 12 13 11 11 8 12 14 15 13 11 8 8 9 6 5 10 11 9 6 6 9 12 13 15 17 17 17 16 15 15 14 13 13 14 13 9 8 6 12 16 16 16 17 21 24 26 29 29 27 24 20 16 13 11 11 7 6 10 9 7 8 5 4 3 4 5 4 4 4 4 4 3 2 2 3 3 3 3
7 11 11 12 10 9 12 12 10 13 12 9 5 7 11 14 14 11 9 8 9 8 8 9 11 9 6 7 8 9 11 13 14 14 15 15 15 14 14 14 14 13 10 8 5 11 19 16 16 17 18 20 21 21 27 32 29 27 23 18 14 10 9 7 8 11 11 10 10 7 5 4 4 4 3 4 4 4 3 3 2 2 2 3 3 3
2 4 7 10 12 11 9 6 5 10 12 5 4 9 10 11 11 9 8 8 8 8 9 10 11 9 5 7 8 8 7 9 12 12 13 14 15 13 11 11 11 9 6 5 5 15 21 23 24 21 19 20 20 19 22 27 28 26 24 21 16 12 10 8 7 11 13 12 11 9 7 5 4 3 3 3 3 3 3 3 2 1 1 2 3 3
5 6 7 10 13 8 2 5 6 10 10 6 7 9 8 8 8 7 7 8 8 7 10 11 11 10 6 2 5 7 6 2 4 9 10 8 10 13 12 10 10 10 7 7 9 13 13 17 22 22 21 20 21 19 16 19 25 26 23 21 16 12 11 10 8 8 12 13 12 10 8 6 4 3 2 3 3 3 3 3 3 2 2 2 3 3
9 10 10 11 13 8 6 7 8 9 9 8 9 9 8 7 7 8 8 8 8 6 7 9 10 9 4 2 3 8 10 6 5 4 6 4 4 7 10 9 9 9 8 8 10 12 8 10 16 21 21 19 20 24 23 21 25 26 24 21 18 13 9 8 8 8 9 11 12 12 10 8 7 5 3 3 4 3 3 3 3 3 3 3 4 4
8 9 12 13 10 10 11 8 7 8 9 10 10 9 8 7 6 8 8 8 8 6 6 7 7 8 6 6 5 8 9 8 9 7 5 3 1 2 8 11 9 8 9 9 10 13 11 12 16 19 20 18 21 29 32 30 28 29 28 26 22 18 13 10 9 9 9 10 11 12 12 11 10 8 6 5 6 4 3 3 3 3 3 4 4 5
9 8 12 13 9 12 14 12 7 7 9 10 10 9 7 6 6 7 6 6 6 5 7 8 6 6 5 6 6 8 9 8 9 8 6 5 5 6 8 12 11 10 10 8 11 14 14 13 16 19 20 21 22 22 23 25 28 30 31 30 27 24 20 16 13 12 10 11 12 12 13 12 10 9 8 7 7 6 5 5 4 3 4 5 5 5
10 7 11 15 12 13 16 14 10 8 7 9 9 9 8 7 5 4 1 1 2 3 5 7 4 2 4 6 6 7 9 9 8 9 8 7 7 7 7 9 10 8 6 7 11 15 15 14 15 16 18 19 18 18 19 21 26 29 29 30 30 28 26 23 19 16 13 12 12 13 15 13 12 11 9 7 9 9 7 7 6 5 5 6 6 6
8 5 9 16 13 11 14 14 12 10 6 6 8 9 7 6 6 6 3 3 1 4 4 6 5 4 7 7 8 9 9 9 8 8 7 7 7 8 9 9 9 8 8 8 10 13 14 14 11 10 13 15 16 18 20 20 23 26 27 28 28 25 26 27 24 18 14 12 12 14 14 13 12 11 9 9 10 10 9 8 7 6 6 7 7 6
7 5 7 13 12 11 10 9 11 11 8 5 7 7 5 5 5 5 4 4 6 7 6 6 7 7 7 6 8 10 10 8 7 8 8 7 8 9 10 10 11 12 12 10 10 11 12 13 12 12 13 14 16 17 18 17 17 18 20 21 21 19 21 23 21 19 16 13 12 11 10 11 11 11 11 11 12 11 10 9 9 8 8 7 7 7
6 6 7 12 13 12 9 7 9 9 11 9 5 5 6 5 5 5 4 4 6 7 6 7 9 7 4 6 10 10 9 9 8 9 8 7 8 9 10 12 12 12 12 11 11 10 10 12 14 14 13 14 16 16 16 15 13 13 13 13 11 13 17 19 18 20 19 15 13 12 11 11 11 12 12 12 13 13 11 11 11 10 9 8 8 8
5 5 4 8 10 10 9 8 9 8 10 10 7 6 6 5 5 5 4 5 6 6 6 7 8 3 3 2 6 8 8 7 8 9 9 9 9 9 10 11 11 10 9 10 10 9 8 10 13 12 13 15 15 15 15 14 13 13 13 13 10 11 16 18 17 19 19 16 13 12 11 12 12 12 12 13 14 14 12 12 12 11 10 10 10 10
6 4 3 5 8 8 6 8 10 10 9 10 8 7 6 5 4 4 5 5 6 6 6 7 6 4 6 6 6 8 6 5 8 9 9 10 11 11 11 10 10 9 10 10 10 9 8 9 12 13 13 15 14 14 14 13 13 14 13 14 12 11 13 14 14 15 16 14 12 11 11 12 12 12 12 13 14 14 13 12 12 11 11 10 10 11
6 6 6 7 6 7 8 10 13 11 8 7 9 9 9 7 5 5 7 7 6 6 5 6 4 4 4 4 5 5 4 5 8 10 9 10 12 12 11 10 10 10 10 10 10 9 9 10 13 13 13 14 13 14 14 13 13 14 14 15 14 13 14 13 12 13 13 13 12 11 12 12 12 12 12 13 13 13 13 11 11 12 12 11 10 11
2 4 6 7 7 7 8 7 7 7 7 8 9 8 9 10 8 7 7 6 7 7 6 7 4 3 3 4 4 3 4 7 9 9 10 10 10 10 10 11 10 10 10 9 8 9 10 11 12 12 12 12 12 12 13 12 12 13 15 16 17 17 16 14 12 12 12 12 11 11 12 12 11 11 12 12 13 12 11 10 11 12 12 11 10 9
1 4 5 7 7 7 6 4 5 6 7 9 8 7 8 9 9 9 8 7 6 7 7 8 5 3 2 2 2 3 6 9 9 9 10 10 9 10 11 12 12 11 11 10 9 9 11 12 12 12 12 12 12 12 13 12 12 13 13 15 16 16 15 14 12 12 12 12 12 12 13 13 12 12 12 12 13 12 10 9 10 11 12 11 10 9
3 5 6 7 7 7 8 7 7 7 7 8 8 9 10 12 11 9 7 6 6 7 8 7 2 4 3 2 3 5 9 10 9 9 11 9 8 9 10 11 11 12 12 12 12 11 11 11 11 13 13 11 11 11 12 13 13 14 14 14 15 15 15 15 14 14 14 13 12 12 13 14 13 13 12 12 13 12 10 9 9 10 11 10 10 10
2 1 3 6 5 6 7 4 3 4 5 7 10 10 9 11 12 8 5 6 7 8 10 7 2 6 5 6 6 6 9 10 9 9 10 9 9 9 9 10 10 11 12 13 14 13 12 11 11 13 14 13 12 11 11 12 12 13 14 14 14 14 15 15 14 14 15 14 13 12 13 13 13 13 12 12 12 12 10 8 9 10 10 10 10 10
0 1 1 2 1 1 2 2 4 6 7 8 11 11 7 7 8 7 7 8 5 6 8 5 10 12 9 9 8 7 9 9 8 8 8 8 9 9 9 10 11 12 13 13 14 14 14 12 12 13 13 13 13 12 12 12 12 13 14 14 13 12 12 12 12 13 13 13 12 11 12 12 11 11 12 12 12 11 10 10 11 11 10 10 11 11
1 2 2 1 1 4 7 7 8 8 8 6 5 4 4 5 6 7 8 6 4 4 4 6 16 15 11 10 9 9 9 8 7 8 8 8 9 9 10 12 14 14 14 15 15 15 16 14 13 13 13 12 12 12 12 13 13 13 13 12 12 11 10 9 10 11 11 11 10 10 9 9 9 9 10 11 11 11 11 11 12 12 11 10 11 12
5 6 5 4 3 3 7 9 11 10 6 3 3 2 2 3 4 4 2 3 3 2 2 9 14 14 11 10 8 8 9 9 8 7 8 8 9 10 11 13 15 15 15 16 16 16 16 15 14 15 15 13 12 11 11 12 13 13 12 11 11 10 9 8 9 10 9 9 8 8 7 7 7 8 8 9 10 11 12 11 11 11 11 10 11 12
6 6 8 8 5 4 5 6 7 8 6 4 4 4 2 2 3 4 5 7 7 8 10 13 15 14 11 9 9 8 7 8 8 7 8 10 10 11 12 14 15 15 15 16 16 16 15 15 16 17 17 16 15 14 12 11 11 10 11 11 11 10 9 8 8 8 7 7 6 6 6 6 6 7 8 8 9 10 11 11 10 11 11 10 11 11
4 3 7 8 6 7 8 7 7 8 9 7 4 5 4 5 7 7 7 8 10 12 13 15 15 12 8 9 11 9 8 9 9 9 10 10 10 12 13 14 14 14 15 15 15 15 15 15 16 17 17 17 17 16 15 13 12 10 9 9 8 9 8 8 8 7 6 6 5 4 4 5 6 6 7 7 8 8 9 10 10 10 11 11 11 11
4 3 6 7 7 6 9 10 9 9 9 10 8 4 1 4 7 7 8 8 7 10 13 11 9 8 8 9 11 11 11 11 11 11 10 9 11 12 13 14 14 14 14 14 14 14 14 14 15 16 17 17 17 17 16 15 14 13 11 9 8 7 7 7 7 6 6 5 4 4 3 3 4 5 5 5 7 7 7 8 9 10 11 11 12 12
5 5 5 7 7 6 9 11 9 8 8 8 7 5 4 7 6 7 8 10 8 4 7 6 7 9 10 11 12 13 13 11 10 9 9 10 11 12 12 13 13 13 13 13 13 13 13 14 15 16 17 17 17 17 17 16 15 14 12 11 9 8 8 8 7 7 7 5 4 4 3 1 2 2 2 3 4 4 5 6 7 9 11 12 13 14
5 4 4 5 5 6 9 11 8 8 7 3 1 2 4 7 7 7 7 7 8 6 7 9 11 13 13 12 13 13 11 10 10 9 9 9 9 10 12 12 12 13 12 12 13 13 13 14 15 16 17 17 17 16 16 16 15 14 12 11 10 8 8 8 9 8 8 7 7 6 4 2 1 1 1 1 2 3 4 5 7 8 10 11 13 14
5 6 5 3 3 4 6 9 9 7 3 2 2 4 5 6 9 11 9 6 7 10 13 15 14 14 13 13 12 12 12 12 11 11 11 10 9 9 10 11 11 11 11 11 12 13 14 15 15 16 16 16 16 16 16 16 16 14 12 11 10 9 8 8 8 9 8 8 8 7 6 5 3 2 2 3 4 5 6 6 7 8 9 10 11 13
3 5 5 4 2 2 4 7 6 2 4 5 4 4 4 5 8 9 6 5 6 9 13 15 14 13 14 14 13 12 13 13 12 10 10 10 10 10 10 10 11 11 11 11 11 12 13 13 13 13 14 14 15 16 16 16 16 14 13 12 12 10 8 7 8 8 8 8 8 7 7 6 5 4 3 4 4 6 7 7 8 9 9 10 11 12
3 3 3 3 3 3 5 5 3 4 4 5 5 3 2 2 1 1 2 5 6 8 12 15 15 15 15 15 13 12 13 12 9 8 9 10 11 11 11 11 12 11 12 11 11 11 10 9 9 10 10 12 14 15 14 15 15 15 14 14 14 14 11 9 8 8 8 8 8 8 7 6 6 5 5 5 5 6 6 6 7 8 9 11 12 12
3 4 3 3 3 4 5 5 4 4 3 3 6 5 4 4 5 5 1 5 5 7 10 14 15 16 16 15 14 13 11 9 7 6 7 9 10 10 10 12 12 11 10 9 8 7 7 6 6 6 7 9 11 12 12 12 12 12 11 10 10 12 11 9 8 8 8 8 8 8 8 8 7 7 7 7 7 7 7 7 8 9 10 11 12 13
3 4 4 5 6 5 6 7 5 2 2 2 5 5 3 2 4 4 2 4 5 7 9 12 14 14 14 14 14 12 8 5 6 7 7 8 9 9 9 9 10 9 9 8 7 6 5 4 3 3 4 6 7 8 8 8 7 7 7 7 7 8 7 7 8 9 9 9 9 9 9 8 8 8 8 8 9 9 9 9 9 10 10 11 12 13
2 4 5 7 8 7 8 7 3 2 2 3 4 5 4 2 2 5 5 4 6 8 9 10 13 13 12 12 11 6 2 2 6 8 9 10 10 9 9 8 8 7 8 8 7 6 5 4 4 5 5 5 5 5 5 5 5 5 5 6 6 7 6 7 9 10 10 10 11 11 10 10 9 9 9 10 10 10 10 10 11 11 12 12 13 14
2 3 5 7 7 7 7 7 2 4 4 5 5 5 5 3 3 4 2 4 6 8 9 10 10 11 10 10 7 4 6 7 9 9 9 9 9 9 9 8 7 7 7 7 6 6 6 4 4 5 5 5 5 5 5 5 6 6 6 6 6 6 7 8 9 10 10 11 11 11 11 11 11 11 11 12 12 12 12 12 12 13 13 14 15 15
2 2 4 6 6 5 6 6 2 4 4 7 5 3 5 4 1 2 4 5 6 8 9 8 8 7 7 6 7 8 9 10 11 10 9 8 8 7 7 7 6 6 6 5 4 5 6 4 3 5 5 5 5 6 6 6 7 7 7 7 8 8 9 10 10 11 12 12 12 12 12 13 13 13 14 14 13 14 14 14 14 15 15 16 16 17
3 3 4 2 3 4 5 5 3 2 4 7 4 2 4 3 2 5 6 5 6 8 8 7 6 6 6 7 8 9 9 10 10 9 8 8 7 6 7 6 5 5 5 4 4 5 6 4 4 5 5 4 5 5 5 6 6 6 7 7 8 9 10 11 11 12 12 12 13 13 14 14 15 15 15 15 15 15 16 16 16 16 17 17 17 18
3 4 3 3 3 4 3 1 1 1 4 6 4 3 6 6 3 4 6 6 6 7 7 6 6 6 6 8 7 7 8 8 8 7 7 7 6 5 5 5 4 4 4 4 4 5 6 5 4 5 4 4 4 4 4 4 4 4 6 6 6 7 9 9 10 11 11 12 13 14 15 16 16 16 16 16 17 17 18 18 18 18 18 18 18 19
4 3 3 3 4 3 3 4 2 2 4 6 5 6 7 7 5 5 7 6 5 6 6 5 6 6 6 6 6 6 7 7 7 6 6 5 5 5 4 4 5 5 5 4 5 6 7 6 5 4 4 4 4 3 3 3 4 5 6 6 6 8 9 10 10 11 11 12 13 14 15 16 17 18 18 18 18 19 19 20 19 19 20 19 19 20
5 3 2 1 4 5 6 5 4 4 6 7 7 7 7 7 6 7 7 6 6 7 6 5 6 5 4 4 4 5 6 6 5 5 5 4 4 4 4 4 4 5 5 5 5 6 7 6 4 4 5 5 5 4 4 5 6 7 8 9 10 11 12 13 14 14 14 14 14 14 15 16 16 17 18 19 20 21 21 21 21 21 21 21 21 21
3 2 1 1 3 3 3 5 6 6 6 7 7 7 7 7 7 7 6 6 7 7 7 6 6 5 5 6 5 5 5 5 5 4 4 3 3 3 4 4 5 5 5 5 6 6 6 5 4 5 5 5 5 6 6 7 8 9 11 12 13 14 15 16 16 17 17 18 18 17 17 17 17 17 18 19 20 21 22 22 22 22 22 22 22 22
2 2 1 1 1 2 5 7 7 6 6 6 6 6 6 7 7 7 7 7 7 7 7 6 5 5 5 5 4 4 4 4 4 4 4 3 3 4 4 5 5 5 5 6 6 6 6 4 4 5 6 7 8 9 9 10 11 12 14 15 16 17 17 18 18 19 19 20 20 20 20 20 19 19 19 19 19 21 22 22 22 22 23 24 24 23
1 2 1 1 2 5 7 8 8 7 6 6 5 5 6 6 6 7 7 7 7 7 6 6 6 6 5 5 4 3 3 4 5 4 4 3 3 4 5 5 5 5 6 6 6 6 5 4 5 6 7 8 10 11 11 12 13 14 15 16 17 18 19 19 20 20 20 20 20 20 19 19 20 20 21 20 20 21 22 23 23 22 23 23 21 21
2 3 2 1 2 2 3 6 6 3 3 5 6 6 6 5 5 6 5 4 5 4 4 4 5 4 5 5 5 4 4 4 5 5 5 4 4 5 5 6 6 6 6 7 6 5 4 5 6 7 8 9 10 11 12 13 14 15 16 17 18 19 19 20 20 20 19 18 18 18 18 18 19 19 20 20 20 21 22 24 25 26 27 24 19 16
3 4 4 2 1 3 4 6 3 1 2 6 6 5 5 4 3 4 3 2 2 2 3 2 1 1 1 1 3 5 5 5 6 6 6 6 6 6 6 7 8 8 8 7 6 5 4 5 6 6 8 10 10 11 13 14 15 16 17 18 19 19 18 18 18 17 17 17 17 17 17 18 18 19 19 19 20 20 22 23 24 25 27 28 26 21
Wind_Direction
191 206 213 214 221 209 210 225 229 255 275 251 229 218 225 232 210 223 228 162 181 214 200 215 225 215 228 233 210 185 193 209 213 213 204 194 194 191 194 189 180 183 180 176 179 181 184 179 174 176 180 183 187 186 178 171 168 165 160 157 157 154 155 158 151 142 141 135 126 127 129 124 123 112 115 118 92 86 81 72 91 109 138 160 159 168
196 217 221 214 229 221 207 222 233 270 297 272 250 231 222 230 217 213 212 161 173 225 207 210 227 225 222 228 227 207 191 201 213 215 204 198 201 196 196 192 177 179 184 178 178 181 185 183 177 180 185 184 185 183 172 163 164 165 160 160 160 157 159 160 153 147 143 137 133 135 131 127 127 114 108 115 104 98 99 84 84 90 120 140 140 153
206 226 229 215 225 228 203 214 230 245 251 251 255 251 228 223 223 209 187 152 169 211 224 216 221 229 225 222 231 223 197 195 212 220 208 196 208 206 194 190 175 177 194 190 184 180 185 189 184 180 183 185 182 175 165 157 162 167 162 163 162 157 160 157 147 144 136 127 123 119 116 109 107 96 75 81 95 105 109 95 81 79 95 115 133 143
209 218 225 214 197 199 200 208 226 234 232 240 243 241 238 215 218 213 169 163 189 203 234 239 230 228 224 221 230 224 198 194 210 220 210 194 211 212 186 179 176 192 202 191 183 183 185 190 187 177 168 171 171 162 162 153 152 158 152 157 160 154 155 148 135 132 123 114 106 101 100 83 80 90 82 84 94 95 104 102 93 87 89 95 108 127
230 208 203 191 162 189 211 207 217 227 219 227 235 238 240 216 217 228 177 180 195 206 235 253 250 226 222 223 224 213 199 211 213 211 211 200 203 200 176 172 184 210 211 187 182 188 192 192 179 147 106 79 70 50 47 91 94 75 71 76 113 133 139 133 125 123 119 114 106 101 102 87 84 96 101 104 101 99 108 108 101 92 89 87 76 86
238 158 140 173 177 199 212 206 209 222 223 218 222 236 247 235 217 203 162 179 203 210 211 222 241 229 221 221 215 201 204 216 209 200 212 207 190 176 172 176 188 211 218 197 191 191 196 184 129 106 99 97 113 97 72 106 112 101 89 76 96 118 97 119 127 125 120 118 113 111 116 113 111 114 107 106 108 113 113 104 103 93 82 81 73 74
223 138 155 204 201 203 214 212 205 211 233 230 202 218 243 255 235 205 182 193 224 228 190 198 227 243 221 217 210 201 202 207 202 200 209 206 186 168 170 184 192 210 221 215 204 194 189 148 102 109 124 126 134 131 116 122 128 134 129 117 131 134 108 116 133 122 113 111 114 118 117 115 116 106 96 101 108 108 103 102 107 98 86 86 80 83
215 170 182 203 204 210 218 218 205 202 228 244 197 199 224 241 240 229 215 216 228 236 176 195 224 252 234 216 204 192 195 200 197 203 207 198 185 172 175 198 205 213 220 221 216 198 156 108 104 118 128 129 132 131 126 124 127 134 129 115 122 125 119 141 138 115 113 113 113 114 110 106 96 95 101 112 114 103 102 111 112 110 114 108 99 101
201 209 199 196 207 214 218 221 206 198 223 248 217 188 209 225 230 234 231 233 234 234 219 206 219 242 233 208 192 183 194 199 194 201 205 194 185 181 180 189 202 211 211 217 225 170 99 89 106 120 127 135 138 138 138 135 133 133 124 107 100 97 105 124 127 116 118 117 112 103 89 85 82 95 118 125 115 105 108 115 106 110 118 109 108 117
185 212 207 199 210 215 219 221 197 192 216 251 245 200 208 218 221 227 228 232 233 234 240 219 211 230 227 185 180 188 199 197 190 196 203 194 181 178 179 180 194 206 201 217 214 111 105 116 129 130 139 142 135 133 132 131 132 134 131 122 111 101 102 108 118 124 122 116 116 108 88 91 91 96 113 115 113 118 118 119 113 113 124 126 126 126
160 210 218 207 216 224 217 194 177 210 213 207 229 222 213 213 217 224 230 236 233 228 239 227 210 225 222 172 179 195 195 193 192 191 202 196 170 169 189 183 185 194 188 199 141 116 134 151 146 135 136 136 129 123 122 128 134 137 138 138 137 141 146 138 129 134 132 124 122 122 121 125 113 94 99 112 123 136 133 135 141 149 144 135 131 131
211 208 217 216 226 246 236 161 191 231 228 210 220 217 204 203 210 214 217 229 231 225 235 225 206 218 227 178 182 164 121 70 213 184 182 182 152 160 182 185 184 182 179 184 144 129 151 155 140 132 129 129 126 119 120 132 139 142 144 145 147 155 163 157 139 134 138 133 130 133 137 139 131 117 111 128 147 156 154 153 154 160 152 143 143 143
216 208 199 206 219 233 235 200 187 212 223 220 220 213 205 197 198 211 209 213 221 223 234 219 200 210 204 93 96 113 102 63 41 107 134 114 93 137 161 186 196 175 175 191 147 131 152 149 136 134 130 128 132 139 148 151 149 152 152 153 160 167 174 171 152 137 136 137 137 139 141 144 147 154 161 159 160 163 158 148 152 163 163 160 155 150
206 207 199 201 201 205 227 222 179 188 204 209 215 213 208 196 196 216 213 211 217 206 209 210 203 211 180 131 108 99 101 96 82 83 102 100 46 144 167 184 191 182 189 190 147 134 147 146 138 138 136 141 156 160 159 159 160 163 162 163 169 174 181 191 180 161 147 142 142 144 150 157 159 160 168 170 160 156 148 137 151 165 160 160 154 145
204 206 197 203 190 182 215 238 222 199 193 203 224 225 215 209 209 224 225 223 227 201 186 189 198 220 192 135 113 108 105 101 98 100 113 142 183 195 181 168 167 189 195 167 135 132 138 141 142 146 152 166 177 168 156 159 165 168 168 168 170 175 182 189 193 190 179 159 150 155 165 168 165 165 169 163 150 146 144 136 144 157 152 154 149 140
221 219 190 202 203 182 201 230 242 235 206 198 221 228 221 219 217 235 244 88 295 253 193 186 191 181 140 130 134 127 113 104 101 108 123 148 162 158 140 132 143 168 156 113 116 127 136 145 147 154 167 177 177 163 155 164 170 170 172 172 172 175 182 188 196 200 192 174 167 179 184 174 163 164 165 156 144 141 140 138 141 150 152 149 143 137
226 235 181 189 204 201 202 214 223 236 231 196 214 227 222 224 234 243 217 136 207 258 216 198 196 141 132 150 157 142 118 107 105 106 115 121 120 114 109 119 134 132 115 108 116 128 140 145 146 166 178 170 162 162 165 169 172 171 170 175 177 175 179 188 193 191 182 176 183 192 189 174 163 165 164 153 145 142 143 142 138 140 146 146 142 139
232 242 172 175 200 210 213 233 231 235 248 227 215 221 215 226 250 261 244 191 202 231 223 206 206 187 174 177 167 148 125 120 121 110 108 107 100 94 91 101 112 112 116 122 120 122 132 140 152 170 168 155 153 163 166 161 163 166 165 174 181 176 178 184 186 185 181 179 186 189 183 172 167 165 159 151 150 150 150 147 142 141 143 149 151 147
232 238 175 178 207 203 193 242 243 231 243 254 267 248 224 225 229 228 237 225 213 228 229 210 208 212 205 184 176 156 121 121 129 118 115 113 101 93 88 87 90 100 113 116 109 107 116 132 147 151 143 142 145 150 153 147 146 153 155 162 173 183 190 189 188 192 190 185 189 191 184 174 168 163 157 155 155 155 153 152 153 154 154 157 161 156
224 256 190 184 219 206 180 216 233 217 221 238 270 267 239 243 241 223 224 234 228 227 230 221 207 186 35 68 145 128 107 116 124 118 117 111 99 93 90 85 81 86 97 102 101 102 110 126 136 135 131 134 137 139 143 143 144 148 150 151 162 191 201 195 191 192 190 186 190 193 185 176 169 164 161 161 159 155 154 157 161 165 164 165 171 166
196 234 231 211 234 225 193 207 222 221 212 210 228 239 234 237 242 239 234 236 241 231 222 229 209 125 51 22 62 88 99 113 114 113 110 100 89 80 75 79 83 79 79 88 97 104 115 127 131 132 132 133 134 138 144 151 152 148 149 155 166 189 198 190 183 181 181 183 189 190 185 176 169 166 167 166 159 152 154 160 167 173 173 177 180 171
199 205 218 219 226 231 230 221 216 225 236 220 215 221 227 228 226 235 233 226 240 248 241 237 209 100 54 360 30 68 109 116 110 111 105 92 84 79 76 77 81 75 70 76 87 97 108 117 122 125 128 132 136 140 146 154 156 151 153 161 170 186 194 189 179 176 177 182 187 188 183 173 167 167 171 171 164 156 159 165 174 179 179 181 182 174
253 218 224 227 222 224 240 242 224 235 264 256 239 229 223 224 224 232 240 236 236 244 255 250 220 106 44 351 17 48 105 107 104 101 97 91 84 87 91 85 82 81 81 86 90 94 99 107 117 119 118 125 131 134 139 147 155 159 161 165 171 181 187 186 180 178 179 183 187 189 184 176 174 174 175 177 173 166 167 175 180 181 178 177 176 176
280 222 233 241 232 218 212 227 230 235 252 255 251 247 241 236 231 232 243 253 251 246 248 249 224 130 87 1 29 78 99 99 100 97 93 92 90 93 95 90 89 90 92 95 97 100 104 112 120 115 106 111 119 127 135 141 150 156 160 164 168 173 176 175 175 174 176 182 185 186 185 181 181 180 179 184 183 178 180 182 180 180 177 174 175 177
225 226 232 232 232 225 209 201 208 214 226 238 235 239 249 249 246 249 245 241 251 251 246 252 228 111 120 110 85 102 108 101 98 99 95 97 100 96 92 90 92 92 92 93 91 91 98 105 111 111 107 105 110 124 135 136 141 148 155 158 158 162 163 162 166 167 166 171 171 171 178 180 181 184 185 189 191 190 191 188 185 186 181 179 179 180
225 258 268 251 240 236 228 219 239 239 237 238 231 235 251 252 253 263 254 237 240 239 244 250 132 117 132 122 99 102 114 106 98 102 103 103 104 99 96 94 92 89 87 87 83 79 85 92 97 106 112 114 113 117 118 118 124 132 138 144 148 152 153 153 160 161 157 162 164 162 170 174 180 187 190 192 194 195 200 202 200 196 189 187 188 188
57 101 359 316 345 324 312 1 347 310 280 249 227 225 236 248 258 267 253 249 256 255 255 216 140 136 138 130 116 110 115 109 103 108 107 107 106 101 100 95 89 84 80 80 77 74 78 83 88 98 106 112 116 116 111 112 119 122 124 129 132 135 139 144 151 151 150 157 162 162 166 170 177 184 187 192 197 201 207 210 208 205 201 198 197 196
256 207 138 53 353 328 336 350 352 330 299 274 246 232 240 239 239 243 249 268 298 292 280 130 130 134 135 132 127 122 121 118 114 114 114 116 114 109 104 95 88 85 80 77 75 73 73 73 76 85 92 98 107 113 116 118 121 120 119 118 117 120 128 136 142 145 148 152 153 155 162 170 178 186 192 198 204 209 212 211 209 208 208 207 205 204
229 225 204 211 229 299 313 314 320 322 322 350 28 16 291 259 232 221 251 327 327 271 150 122 120 119 122 127 122 121 125 123 118 117 119 118 115 114 107 95 87 84 81 77 74 72 71 70 70 71 75 82 90 99 109 115 116 116 115 116 120 122 124 133 139 140 142 145 146 149 157 168 178 188 198 204 209 212 211 210 208 207 207 208 210 211
226 221 210 217 214 216 249 265 279 290 303 335 15 33 51 74 77 83 73 67 79 94 109 117 112 106 116 129 123 118 123 124 122 121 120 117 114 109 99 91 86 83 81 78 74 72 69 68 69 67 66 68 70 76 86 96 104 112 116 120 124 122 120 124 126 123 124 129 136 147 159 172 182 190 197 203 208 209 207 208 208 211 215 216 218 219
211 200 192 207 217 210 215 225 232 243 257 268 309 4 37 70 69 65 64 71 90 100 103 106 102 103 123 136 129 127 127 128 129 124 119 114 107 100 93 89 87 83 81 78 74 72 68 64 62 61 60 59 59 60 64 71 79 86 94 105 111 109 108 106 102 102 109 115 123 137 151 162 175 189 195 199 205 208 209 211 212 218 224 225 230 231
203 194 174 198 226 211 196 206 212 215 231 237 239 256 321 64 61 62 56 49 80 118 123 116 108 119 138 140 136 134 130 128 125 120 115 107 97 93 88 86 82 77 76 74 71 69 66 61 56 53 52 50 50 50 49 53 62 64 65 71 80 91 97 94 93 99 102 105 114 120 126 145 164 177 185 192 202 206 210 218 220 225 229 229 231 234
213 220 196 206 226 217 196 196 194 198 217 230 232 219 150 115 97 84 65 40 37 104 142 130 114 126 139 146 143 135 127 120 111 104 100 95 90 84 81 80 78 73 69 65 63 61 57 54 50 46 45 43 42 41 39 39 43 47 50 54 61 74 87 89 88 86 83 81 83 91 96 109 137 154 171 190 207 209 213 224 229 231 234 234 233 232
197 221 233 222 238 236 200 185 192 212 218 220 344 40 100 127 128 109 84 47 35 58 92 101 114 131 142 147 141 132 123 112 103 97 91 88 86 81 78 75 71 67 62 56 55 52 46 44 43 38 37 36 34 34 34 32 30 31 36 41 45 53 67 78 79 73 68 64 59 57 53 39 24 359 293 246 238 233 231 236 240 241 241 239 235 229
196 209 224 209 242 256 193 180 204 224 207 101 65 50 58 95 112 106 97 80 76 91 100 110 126 137 136 134 130 124 115 104 96 92 90 91 94 92 88 81 73 66 61 54 49 44 38 34 33 30 27 25 24 26 28 24 19 19 24 27 28 33 43 57 66 65 58 53 51 47 39 29 18 356 312 273 252 244 241 238 241 243 241 240 235 226
244 232 234 221 231 253 194 196 210 181 102 88 91 93 84 108 125 122 110 103 114 121 121 124 130 127 120 122 124 119 112 102 88 77 75 77 82 85 84 81 75 67 62 58 51 47 41 32 29 27 23 21 20 19 19 16 11 10 13 14 11 11 22 39 48 49 45 39 36 31 26 22 14 358 326 293 269 254 248 242 241 241 236 236 235 229
313 269 249 235 229 234 227 216 177 138 141 121 99 87 63 75 128 200 131 123 134 141 135 133 133 130 128 128 125 122 118 109 96 82 76 73 75 80 81 80 78 73 65 59 54 51 44 33 30 27 22 23 21 16 13 10 9 7 6 7 1 356 1 14 21 24 24 21 18 12 7 4 359 350 334 314 291 273 264 259 253 249 241 237 237 234
289 278 283 266 235 237 254 245 200 194 215 129 89 59 21 10 350 343 65 134 145 154 145 136 135 137 138 137 135 139 139 125 110 107 104 95 88 89 91 91 93 95 91 81 73 69 59 43 34 29 29 30 23 14 9 8 7 0 354 357 355 344 344 348 352 356 358 355 353 349 347 347 343 338 332 319 307 298 292 281 270 263 252 245 244 243
256 254 261 263 253 251 264 262 246 236 265 74 71 45 19 1 340 321 245 178 152 153 149 140 140 142 141 141 145 156 171 160 134 127 121 111 99 89 87 87 87 90 89 79 67 63 66 61 48 44 47 42 28 13 1 359 358 347 336 340 335 325 326 332 334 337 339 337 334 330 327 325 323 323 321 315 312 311 304 292 282 275 266 258 254 250
229 240 241 248 254 254 256 261 263 84 67 50 44 20 8 16 319 269 233 184 144 148 149 146 147 145 144 150 155 156 161 140 132 126 119 114 104 91 85 82 76 72 70 64 50 35 35 41 38 33 30 28 23 8 350 345 340 327 321 322 318 317 325 329 328 329 329 328 324 319 314 310 309 309 307 304 304 304 300 294 289 281 273 268 262 256
229 259 259 253 255 260 261 264 251 95 57 15 19 7 345 327 260 244 197 134 138 145 142 142 146 147 151 160 155 103 72 88 107 111 110 109 103 95 89 82 74 67 60 58 52 31 20 24 29 21 11 7 3 351 343 341 329 321 321 318 317 323 328 325 322 320 318 316 312 308 304 302 301 300 298 296 294 292 289 286 284 281 276 270 265 262
317 305 270 263 267 270 264 263 240 102 34 347 357 17 345 321 215 122 91 114 134 132 129 132 135 143 148 133 105 93 96 102 106 107 104 100 95 91 85 76 73 70 59 58 65 39 14 8 16 6 357 357 354 346 345 340 330 328 329 324 324 330 328 324 320 314 310 307 303 300 297 294 292 290 288 287 285 283 282 279 277 275 272 268 265 262
7 317 270 297 327 288 262 260 257 99 33 339 329 17 13 13 116 125 107 104 108 107 112 114 112 122 125 108 101 107 108 104 103 104 99 93 89 85 78 70 65 63 48 42 55 34 3 351 4 358 350 353 351 343 341 337 333 336 332 321 322 326 323 320 317 314 311 308 304 301 297 292 289 285 281 278 276 274 274 274 273 270 267 263 261 258
20 318 291 43 20 302 292 320 296 56 43 10 1 53 61 54 83 124 112 107 110 110 111 108 103 109 118 120 123 120 108 100 97 95 90 87 84 76 73 68 59 50 32 22 33 21 353 345 355 353 348 354 350 340 333 327 321 320 315 307 309 316 314 313 312 309 309 307 303 301 300 296 293 288 282 278 275 271 269 267 266 266 265 261 257 254
41 14 339 28 41 12 32 68 96 77 59 56 67 90 94 89 90 100 107 118 118 103 99 108 111 110 118 129 129 111 96 91 88 81 74 74 74 63 53 52 48 32 13 10 19 7 350 345 349 352 352 352 348 344 337 326 316 316 319 322 324 325 321 320 317 311 308 306 303 301 300 297 295 291 286 280 276 271 268 265 262 260 259 256 254 252
57 41 338 34 102 92 70 76 95 90 79 80 82 86 94 104 106 104 109 113 97 79 77 88 92 80 70 86 99 90 79 75 76 74 63 57 60 54 44 44 37 20 4 4 9 0 347 340 344 354 353 349 350 351 344 336 329 326 330 331 328 325 323 320 316 311 308 306 304 301 298 295 293 292 288 284 278 271 266 263 259 257 255 253 253 251
61 356 341 135 154 144 102 98 105 106 104 100 92 83 81 88 94 96 99 101 96 90 87 88 89 80 63 55 61 70 70 62 57 53 48 44 39 37 39 34 21 8 360 0 4 355 343 339 349 355 349 344 344 343 338 334 329 326 327 326 324 321 318 314 311 307 306 304 302 301 298 295 294 291 288 287 283 276 269 264 259 256 253 252 251 250
32 325 305 112 102 107 115 119 121 119 116 114 111 107 102 98 97 98 101 104 104 101 100 99 96 91 83 71 65 69 72 69 56 35 21 20 21 26 26 17 7 358 352 358 1 349 337 343 353 346 339 339 336 333 332 330 327 326 325 323 321 319 315 312 309 306 303 300 297 296 295 294 293 290 287 285 282 278 274 267 261 257 255 253 251 250
325 284 291 29 104 117 126 134 136 133 130 125 110 104 114 122 119 117 120 121 115 108 106 100 86 79 81 73 56 46 55 64 53 25 2 3 19 23 14 2 357 352 348 351 350 334 325 339 344 333 331 334 333 332 332 329 326 326 324 321 320 318 314 311 308 304 301 298 295 293 291 291 291 290 287 286 283 280 275 269 265 264 264 261 255 252
281 307 346 291 193 151 140 149 147 141 146 140 124 112 120 127 125 125 126 118 106 96 92 94 94 100 102 86 60 37 30 35 32 15 357 1 14 11 0 354 350 345 344 343 333 323 325 336 335 330 331 334 334 333 332 329 326 325 323 321 320 317 313 310 307 303 301 299 295 293 292 290 289 288 288 287 286 284 281 274 268 266 269 272 270 263
353 357 3 337 342 53 100 147 158 7 93 129 129 125 125 124 132 135 121 89 78 65 43 33 37 78 103 92 76 64 39 15 12 11 2 360 2 359 357 354 346 338 337 333 322 322 334 331 327 330 332 333 333 331 328 327 325 324 323 321 318 314 311 309 305 301 299 296 294 293 292 289 287 286 286 285 284 286 287 283 275 267 264 265 267 265
Height
744 752 751 748 742 736 737 733 729 728 721 720 721 725 726 722 721 718 709 706 712 722 727 726 726 725 722 716 712 715 719 723 725 724 726 729 731 734 737 738 740 742 742 744 748 751 754 756 759 763 765 767 768 770 772 775 778 781 783 785 787 788 790 791 792 793 794 794 796 798 799 801 803 805 806 808 810 810 811 812 813 813 814 814 814 815
744 753 746 738 734 728 731 731 729 733 731 728 725 724 724 722 719 712 708 709 714 724 725 722 725 723 719 717 712 712 719 724 724 724 726 728 731 733 735 737 739 741 740 741 745 749 753 754 757 762 764 766 766 767 771 775 780 782 783 785 786 788 790 791 793 794 795 795 797 798 800 801 803 804 806 807 809 811 811 812 813 813 814 814 814 814
750 750 738 729 728 725 728 730 732 737 739 737 731 729 727 720 715 709 707 712 718 728 728 721 725 723 715 714 713 711 715 721 721 721 722 726 731 732 734 736 739 743 743 741 744 747 750 752 755 761 764 766 766 767 771 775 778 781 782 784 786 788 790 792 794 795 797 798 799 800 801 802 803 804 806 808 809 811 812 812 813 814 814 815 815 815
752 742 729 723 725 730 735 735 738 741 741 740 735 734 729 718 719 718 714 719 721 726 728 722 722 721 715 716 715 709 711 716 718 717 716 722 728 729 731 736 741 746 745 742 743 746 749 751 754 759 764 768 770 772 773 774 778 781 783 785 786 789 791 794 796 797 799 800 802 803 804 805 805 807 808 809 811 811 812 813 814 815 815 815 816 816
737 723 716 720 728 735 740 740 742 744 743 740 735 733 726 717 717 717 717 721 723 726 726 726 731 727 720 721 717 709 711 715 715 715 716 718 723 727 730 736 743 746 744 742 745 749 749 750 755 760 769 776 778 780 779 777 782 785 788 790 791 794 795 796 797 799 801 802 804 805 807 808 808 809 810 810 812 812 813 814 814 815 816 816 817 817
725 715 715 727 733 735 739 741 741 743 742 738 734 729 722 714 712 715 721 727 735 738 727 729 748 740 719 717 717 712 715 717 714 716 719 719 721 728 734 737 742 745 743 742 745 749 750 753 760 766 772 778 778 781 781 781 785 788 791 795 798 800 799 798 799 801 802 804 806 807 809 810 811 811 811 811 812 813 813 814 815 816 817 817 818 818
721 718 723 731 734 735 738 738 735 737 741 737 727 723 721 715 713 716 722 731 740 738 723 723 744 741 720 714 712 711 717 718 717 719 721 720 723 730 736 738 740 742 743 744 744 746 750 757 765 768 770 771 774 778 782 783 786 789 793 797 799 800 801 802 802 802 804 805 807 809 810 812 812 812 813 813 814 814 814 815 816 816 817 817 818 818
720 724 729 730 734 737 737 736 730 730 739 734 716 716 723 721 721 719 720 729 728 726 724 720 729 736 730 719 709 709 718 720 720 721 720 719 725 733 738 739 741 743 744 746 748 748 753 762 768 770 771 770 772 776 780 783 786 790 793 796 798 798 801 805 805 803 805 807 809 811 812 813 814 815 816 816 815 815 815 816 816 817 817 818 818 819
720 728 731 731 736 736 732 728 721 724 734 725 707 711 719 720 722 719 721 727 721 726 737 725 721 736 736 719 708 710 718 722 721 720 718 717 722 730 736 740 742 743 743 747 753 755 759 766 769 771 773 772 773 775 776 778 783 787 790 795 798 800 802 805 805 804 806 808 810 811 813 814 816 816 817 817 817 817 817 818 818 818 818 819 819 820
719 722 722 727 733 730 723 715 712 721 728 717 708 712 715 717 718 718 722 723 721 735 744 727 721 735 736 721 714 717 719 719 718 716 713 713 718 724 728 734 739 741 742 747 755 760 764 767 768 771 774 775 778 779 779 780 782 786 788 791 797 800 802 805 805 805 806 808 809 811 813 815 817 818 817 818 818 818 818 819 819 819 819 820 820 821
716 716 717 721 723 717 712 710 713 718 717 715 717 718 718 717 715 718 719 719 732 746 739 722 717 727 735 725 715 716 715 712 712 713 711 708 717 727 726 728 734 738 741 748 759 764 763 763 765 770 776 779 782 784 786 785 785 787 788 789 794 798 801 803 805 805 806 806 808 810 813 815 817 819 819 819 819 819 819 820 820 821 821 821 822 822
718 722 722 717 713 710 712 715 718 716 713 717 721 720 725 727 723 727 727 727 747 753 731 715 713 723 739 733 715 710 710 710 709 709 711 710 718 728 728 729 732 736 739 747 761 767 763 762 764 770 776 779 781 784 787 788 786 786 787 789 793 797 799 802 804 805 805 805 807 809 812 815 817 820 820 820 820 820 820 820 820 821 822 822 823 823
722 721 718 716 712 711 718 721 721 720 717 720 721 721 733 741 741 746 743 739 746 744 723 711 716 726 736 733 720 713 714 717 714 711 714 717 721 725 730 735 734 734 739 745 758 768 767 765 767 770 774 776 777 778 778 781 784 784 784 786 791 795 799 801 804 805 805 805 806 808 811 814 817 819 820 821 821 821 821 821 821 822 822 823 824 824
729 721 714 717 715 712 718 720 723 725 721 723 722 722 734 747 758 761 750 742 742 735 720 711 720 730 730 727 723 719 719 719 718 719 720 721 724 727 730 736 739 739 741 745 755 763 763 763 766 769 772 773 773 771 769 772 778 780 781 783 787 791 796 799 802 804 805 805 806 808 811 813 815 817 819 820 820 821 821 821 822 822 823 824 825 825
734 732 718 716 714 712 715 712 712 714 716 719 712 712 726 735 748 755 747 743 742 732 722 720 729 733 732 732 724 718 719 718 719 723 724 726 727 728 727 731 739 742 739 741 750 758 759 759 762 765 768 769 770 771 771 773 776 778 778 779 782 786 790 795 799 802 803 804 806 809 810 812 814 816 818 818 819 820 821 822 822 823 824 825 826 826
728 727 708 705 705 705 713 709 702 707 714 714 705 711 723 719 724 738 740 740 741 738 732 729 730 727 728 731 722 718 721 719 721 725 727 730 728 727 730 733 737 738 737 740 748 754 758 759 759 761 763 765 768 772 773 774 776 777 777 778 780 784 787 790 795 798 801 804 807 808 809 811 813 815 817 818 818 819 821 822 823 824 825 826 827 827
727 721 699 700 703 700 706 705 699 707 714 712 711 716 712 702 710 729 737 736 742 752 742 728 729 730 731 733 722 720 727 727 727 728 729 731 729 729 734 738 739 739 742 745 747 753 757 759 760 761 763 764 768 772 772 773 775 776 778 780 781 784 787 789 793 796 800 804 806 808 809 811 812 814 816 817 818 819 821 822 823 824 826 827 828 828
722 720 701 701 711 703 698 701 699 699 703 710 717 711 702 704 710 721 736 741 747 756 741 725 732 736 740 745 730 722 732 736 734 732 734 735 733 733 736 737 738 741 746 749 749 753 756 759 762 763 764 766 768 772 773 774 776 778 780 782 784 786 788 791 793 796 800 803 806 809 810 811 813 815 816 817 818 819 820 821 823 825 826 828 829 830
715 722 710 701 710 704 697 708 711 702 698 705 708 701 704 724 728 726 739 748 751 756 745 731 730 730 735 741 731 727 735 739 737 737 739 740 738 738 738 738 738 741 746 750 752 754 755 759 762 762 764 766 768 771 774 776 778 780 782 784 787 790 791 792 794 796 799 802 805 808 810 812 813 815 816 817 818 819 820 821 823 825 827 828 830 830
713 728 724 706 702 702 703 715 721 714 705 704 708 704 704 717 724 725 731 736 742 750 749 740 734 736 740 735 730 735 738 737 740 741 741 742 741 740 740 741 742 743 745 749 753 755 756 759 761 763 765 767 769 772 774 777 779 781 783 784 789 793 794 794 794 796 799 801 804 807 809 811 813 814 816 817 818 819 820 821 823 825 826 828 830 830
715 732 737 720 705 706 712 714 715 715 710 711 719 719 715 713 715 722 725 723 727 739 745 744 743 749 752 742 737 742 742 737 739 742 743 743 743 744 745 746 748 748 749 751 754 756 758 759 760 764 767 768 771 773 775 778 779 781 783 783 788 794 796 796 795 797 799 801 804 806 808 811 812 814 816 817 818 819 820 822 823 825 826 828 830 830
714 726 735 730 720 720 716 703 699 703 703 708 715 716 719 718 721 734 738 725 720 727 732 737 748 758 756 748 744 744 742 738 737 741 745 745 748 752 753 754 754 754 755 756 756 758 760 760 762 765 767 770 772 773 776 779 780 782 783 785 789 794 797 797 797 798 800 802 804 806 808 810 812 814 816 817 818 819 820 822 823 825 827 828 829 829
710 717 727 730 724 720 712 697 695 699 699 701 703 704 708 711 718 735 743 732 722 723 721 724 744 763 759 750 748 744 739 739 740 743 746 749 754 756 757 759 760 760 761 761 761 762 764 765 766 768 769 771 774 776 779 781 783 785 786 787 790 793 796 798 798 799 801 802 804 806 808 810 812 814 816 817 818 819 820 822 823 825 826 827 828 829
714 720 732 735 722 712 706 700 698 700 703 708 706 702 705 706 709 717 723 724 725 728 727 727 742 763 762 752 748 744 740 743 746 746 750 755 757 757 759 762 763 765 765 765 765 765 767 769 769 771 773 775 777 780 782 784 786 788 789 790 792 793 795 796 798 800 801 803 805 807 808 810 812 814 815 817 818 819 820 822 823 824 825 826 827 828
723 726 732 738 735 729 721 716 714 709 709 713 710 706 706 704 705 709 712 720 730 732 729 733 752 766 762 752 749 745 744 750 751 751 755 760 761 761 763 765 767 769 770 770 770 769 769 770 771 774 777 778 780 783 784 786 788 788 789 791 792 793 794 795 797 799 801 803 805 807 808 810 811 813 814 816 817 818 820 821 822 823 824 825 826 827
729 733 734 738 748 753 746 738 733 725 716 713 710 710 711 709 710 716 719 727 736 734 725 734 760 771 761 755 755 750 750 757 759 757 759 762 765 766 768 769 771 772 774 775 776 775 774 773 774 777 780 781 783 785 786 787 788 788 790 791 791 792 793 795 797 798 800 802 804 806 808 809 810 812 814 815 816 817 819 819 821 822 823 824 825 827
732 737 739 743 749 752 749 740 732 727 724 721 714 713 717 717 717 722 728 731 734 734 729 733 753 768 765 761 762 758 757 763 766 765 766 768 769 771 771 773 773 774 776 778 779 780 780 779 779 780 782 783 785 787 788 789 790 790 791 792 793 794 794 795 797 798 800 802 803 805 807 808 810 811 813 814 815 816 818 819 820 821 822 823 824 826
738 743 744 749 750 747 742 736 730 728 728 724 720 721 723 724 724 729 734 732 729 737 744 743 748 762 766 765 767 767 766 769 772 773 774 774 773 774 775 775 775 777 779 781 783 785 786 786 785 785 785 786 788 790 791 792 793 793 793 795 796 796 797 797 798 799 800 801 803 805 806 808 809 810 812 813 815 816 817 818 819 820 821 822 824 825
738 744 743 746 751 750 747 745 740 735 729 725 727 732 732 729 729 733 737 733 730 739 750 752 754 762 768 770 773 774 772 774 777 777 776 776 775 776 777 777 779 781 783 785 787 789 790 791 792 792 792 791 791 792 792 792 794 795 796 797 797 798 799 799 799 800 801 802 803 805 806 807 809 810 812 813 814 815 816 817 818 819 821 822 823 824
731 740 738 740 748 750 749 750 747 742 737 734 733 733 732 732 732 735 739 737 735 741 748 753 761 769 774 778 780 781 779 779 780 779 779 780 781 781 781 782 784 785 787 789 791 793 794 796 797 798 798 798 797 796 795 795 794 794 795 796 797 798 799 800 800 800 802 803 804 805 806 808 809 810 812 813 813 814 815 816 818 819 820 821 822 823
732 740 736 737 745 747 745 746 747 746 745 744 742 737 734 736 738 742 744 742 744 752 757 762 772 780 781 781 782 785 785 784 785 785 785 786 786 786 786 787 788 790 791 793 795 797 799 800 801 802 802 802 803 802 801 800 799 797 797 796 797 798 799 800 801 802 803 804 805 806 807 808 810 811 811 812 813 814 815 815 816 817 818 819 820 821
736 740 738 741 749 747 744 745 745 745 746 748 749 745 741 744 748 749 750 749 751 759 764 767 776 784 784 783 785 787 787 788 790 791 791 791 791 791 792 793 795 796 797 798 800 801 803 805 805 806 806 805 805 805 804 804 803 803 802 800 800 800 800 801 802 803 803 804 805 806 807 808 809 810 811 811 812 813 814 814 815 816 817 818 819 819
734 736 737 741 748 746 741 743 745 748 753 754 750 747 746 750 753 752 755 758 756 756 760 764 770 778 783 785 787 788 790 793 795 794 794 795 796 797 798 799 801 802 803 804 805 806 807 808 809 809 809 808 808 808 808 807 807 806 806 805 805 804 803 804 804 805 805 805 806 806 807 808 809 809 810 811 811 812 813 814 814 815 816 817 817 818
740 744 740 738 746 748 739 739 749 755 759 760 756 751 749 750 754 759 765 767 761 756 757 762 770 777 781 783 786 790 794 796 797 797 798 799 801 802 804 805 806 807 809 809 810 811 812 812 813 813 812 812 812 811 811 811 811 810 809 808 808 807 806 806 806 806 807 807 807 807 808 808 808 809 810 811 811 812 812 813 813 814 815 815 816 817
743 750 746 741 750 754 743 745 759 764 759 759 760 756 753 752 756 765 771 771 766 764 765 769 774 775 775 779 786 792 796 797 798 799 800 801 803 804 805 808 810 811 813 814 815 816 817 816 817 816 816 816 815 814 814 814 814 813 812 811 811 810 809 808 808 808 809 809 809 809 809 809 809 810 811 811 812 812 812 812 813 813 814 814 815 815
736 740 739 738 748 758 754 754 763 766 760 760 762 758 756 757 758 764 771 772 770 768 770 774 777 777 778 784 791 795 798 799 801 804 804 804 804 806 807 809 812 814 815 817 819 820 821 821 821 821 820 820 819 818 818 818 817 816 815 815 815 813 812 811 810 810 811 811 811 811 811 811 811 811 811 811 811 811 811 812 812 813 813 813 814 814
735 736 738 742 751 759 760 758 761 764 763 763 764 762 760 762 760 759 765 772 770 767 769 774 779 783 787 792 796 799 799 801 807 810 810 809 809 811 812 813 816 818 819 821 823 823 824 825 824 824 824 823 822 822 821 821 820 819 819 819 818 817 816 815 814 813 813 813 813 813 812 812 812 811 811 811 811 811 811 811 811 811 812 812 812 812
736 737 740 748 752 752 756 758 760 766 768 765 766 767 765 765 763 759 764 772 771 766 769 776 781 785 789 793 798 801 799 800 807 812 812 812 812 813 815 816 818 821 822 823 825 825 826 826 826 826 825 824 824 823 823 823 822 822 822 822 821 821 820 819 817 816 815 814 814 814 813 813 813 812 812 811 811 811 810 810 810 810 810 810 810 810
740 739 740 747 748 748 755 757 757 768 775 770 768 770 767 766 766 763 766 773 772 768 772 780 784 786 789 792 795 797 794 794 803 809 811 812 813 814 816 817 819 821 822 823 825 825 825 826 826 826 825 825 825 825 824 824 824 824 824 823 822 822 821 820 819 817 816 815 814 814 813 813 813 812 812 812 811 811 811 810 809 809 808 808 808 807
745 742 742 746 747 747 753 753 756 772 781 773 771 773 769 767 770 769 771 775 774 772 774 780 784 787 789 791 792 795 794 793 800 808 810 812 814 816 818 820 821 822 823 824 825 825 825 825 825 825 825 826 826 826 826 825 825 825 824 823 823 822 820 820 819 817 816 815 814 814 813 813 812 812 812 811 811 810 810 809 808 808 807 806 806 805
749 747 746 748 748 747 751 752 759 777 785 777 775 777 772 770 771 772 775 777 774 773 776 780 783 786 788 789 792 797 800 801 804 810 812 813 816 817 820 821 822 823 824 825 827 827 826 826 826 826 826 826 826 826 825 825 825 824 823 823 822 821 820 819 818 817 816 815 814 814 813 812 812 811 811 810 810 809 808 807 807 806 805 805 804 803
756 757 752 750 750 751 754 755 761 780 791 784 779 777 774 774 777 778 780 778 774 775 779 782 785 787 789 791 796 802 806 807 809 812 814 815 817 819 820 822 823 824 825 826 827 827 827 826 826 826 826 825 825 825 824 824 824 823 822 822 821 820 820 819 818 817 816 815 814 813 812 812 811 810 809 809 808 807 806 805 805 804 803 802 802 801
765 766 758 758 762 759 758 761 768 784 793 786 779 778 778 780 783 782 782 781 780 782 786 789 791 792 794 797 802 806 808 809 812 814 815 817 819 820 821 823 824 825 825 825 826 827 826 826 825 825 825 824 824 824 824 824 824 823 823 822 821 821 820 819 818 817 815 814 813 812 811 810 809 808 807 806 806 805 804 803 803 802 801 800 799 798
770 770 763 769 775 769 768 779 787 789 788 783 782 785 786 786 784 781 783 787 789 790 793 797 800 800 801 804 807 809 811 813 814 815 816 818 819 820 822 823 824 825 825 825 825 826 826 825 824 824 824 824 824 824 824 824 824 823 823 822 821 820 819 818 817 816 815 814 813 811 810 809 807 806 805 804 804 803 801 801 800 799 798 797 796 795
773 774 771 775 778 775 778 788 791 787 785 785 787 789 791 791 788 786 789 793 794 796 800 803 806 806 806 807 809 811 813 814 815 817 818 819 820 821 822 823 824 825 825 825 825 826 825 824 824 824 824 823 823 823 823 823 822 822 821 820 819 818 817 816 815 814 813 812 811 810 809 807 806 805 804 803 802 800 799 798 797 796 795 794 792 791
774 774 774 776 778 780 784 787 788 788 789 790 790 791 793 793 793 794 796 798 801 805 807 809 812 813 811 810 811 813 815 816 816 818 819 819 820 822 822 823 824 825 825 824 825 825 825 824 823 823 823 822 822 822 821 821 820 819 818 817 817 816 815 814 813 812 811 810 809 808 807 805 804 804 802 801 800 798 796 795 794 792 791 790 789 787
776 774 775 777 779 784 790 793 792 793 794 794 795 797 797 797 798 800 802 804 807 810 813 815 816 817 816 815 815 816 817 818 818 819 819 820 820 821 822 823 824 824 824 824 825 825 824 823 822 822 822 821 821 820 820 819 818 817 816 816 815 814 813 812 812 810 809 808 807 806 805 804 803 802 801 800 798 796 794 792 790 789 788 786 786 784
777 776 776 778 780 785 791 794 794 794 795 795 797 799 801 803 805 806 808 810 812 813 815 816 816 816 817 817 817 817 818 819 820 820 820 819 820 821 822 823 824 824 824 824 824 824 823 822 822 822 821 820 819 819 818 818 817 816 815 815 814 813 812 811 810 809 808 807 806 805 804 802 801 800 798 797 796 795 792 790 788 786 784 783 783 782
779 778 777 779 784 789 792 794 795 796 798 798 798 800 802 805 806 808 810 811 812 813 815 815 816 817 818 818 818 818 818 819 820 821 821 820 820 822 823 824 824 824 824 824 825 824 823 822 821 821 820 819 818 818 818 817 816 815 815 814 813 812 811 810 809 808 807 806 805 803 803 802 800 798 796 795 794 793 790 788 786 784 783 781 780 779
780 780 779 780 786 790 791 793 795 796 797 800 801 802 803 804 805 807 808 808 810 812 813 814 816 817 817 818 819 819 819 820 821 822 821 820 821 823 823 824 824 824 824 824 824 823 822 821 821 820 820 819 819 818 818 817 816 815 814 813 812 812 811 810 809 807 806 805 804 803 802 801 799 798 796 794 793 791 788 786 784 783 782 780 779 779
785 788 787 786 788 789 791 793 794 794 796 800 802 802 803 804 805 806 808 809 811 812 813 814 815 814 814 815 817 819 821 822 822 822 822 822 822 823 823 824 824 824 824 823 822 821 821 821 821 821 820 819 819 819 818 817 816 815 814 813 812 811 810 809 808 807 806 805 804 802 802 801 799 798 796 794 792 790 787 784 782 780 780 779 778 778